STARLINK-32540, 61723

Orbit data source: Space-Track

STARLINK-32540, 61723 is a payload satellite owned by SpaceX/Seattle (US) in LEO that was launched on Wed, 30 Oct 2024 UTC via an FALCON 9 launch vehicle from the Air Force Eastern Test Range (AFETR). Payload-class satellites include a variety of spacecraft equipped with specific instruments for various scientific and technological missions. These include communications satellites like Starlink; space stations such as the ISS; scientific satellites like the Hubble; Earth observation satellites from companies like Planet Labs, Umbra, and HawkEye 360; GPS; miniature CubeSats for education and research; and military/defense satellites.

Loading next visibility...
Identifier
61723, 2024-196S
Orbit
LEO
Country
Flag of USUS
Related business
Manufacturer
SpaceX/Seattle
Mission
Operational spacecraft
Bus & Motor
STARLINK V2M, Unknown motor
Mass
730 kg wet, ~700 kg dry
Launch date (UTC)
2024-10-30 (1 year ago)
Launch vehicle
FALCON 9
Launch site
Air Force Eastern Test Range (AFETR)
Object type
Payload
Rocket body
Debris
Shape & HBR
Unknown shape, 17.7 m
Radar Cross Section
Large (>1 m²)

Expand to show TLE details & history
Last TLE update: 16 hours ago

TLE from 16 hours ago
0 STARLINK-32540
1 61723U 24196S   25312.86055104  .00004992  00000-0  18053-3 0  9997
2 61723  53.1613 266.7702 0001775  84.6528 275.4675 15.30206923 59150
Epoch: 2025-11-08T20:39Z
TLE epoch observation values (Epoch: 2025-11-08T20:39:11.609Z)
Latitude
-0.00006°
Longitude
-91.31232°
Altitude
475.979 km
Speed
7.629 km/s
True Right ascension
17h 47m 04s
True Declination
0° 00' 00"
Sunlit
Object was in daylight at epoch
Visualization orbit readout
Latitude
Unknown
Longitude
Unknown
Altitude
Unknown
Speed
Unknown
Apparent Right ascension
Unknown
Apparent Declination
Unknown
Sunlit
N/A
Visualization observer readout
Local Sidereal Time
08:57:40
Azimuth
Unknown
Elevation
Unknown
Doppler factor
Unknown
Orbital elements
Apogee altitude
476.667 km
Perigee altitude
474.234 km
Semi-major axis
6,853.588 km
Eccentricity
0.00018
Inclination
53.1613°
RAAN
266.7702°
Arg. of periapsis
84.6528°
True anomaly
275.44725°
Mean anomaly
275.4675°
Eccentric anomaly
275.45738°
Mean motion
3.82531 °/min
Orbital period
94.11 mins
BSTAR
0.00018053
Loading maneuver chart data...
Computing Atmospheric mass density...
Loading historical data...
Loading historical data...
Loading historical data...
Loading historical data...
Loading historical data...
Loading historical data...
Loading historical data...

Documentation

Showing up to 5 results
|